Regional Weather Roundup
Issued by NWS Little Rock, AR

Home | Current Version | Previous Version | Text Only | Print | Product List | Glossary On
Versions: 1 2 3 4 5 6 7 8 9 10 11 12 13 14 15 16 17 18 19 20 21 22 23 24 25 26 27
000
ASUS44 KLZK 250605
RWRLZK

WEATHER ROUNDUP FOR ARKANSAS
NATIONAL WEATHER SERVICE LITTLE ROCK AR
100 AM CDT SAT JUN 25 2016

NOTE: "FAIR" INDICATES FEW OR NO CLOUDS BELOW 12,000 FEET WITH NO
SIGNIFICANT WEATHER AND/OR OBSTRUCTIONS TO VISIBILITY.

ARZ001-003-010-029-250700-
NORTHWEST ARKANSAS

CITY           SKY/WX    TMP DP  RH WIND       PRES   REMARKS
FAYETTEVILLE   CLOUDY    78  73  84 S5        30.05S
6HR MIN TEMP:  77; 6HR MAX TEMP:  87;

FORT SMITH     CLEAR     80  72  76 E5        30.01S
6HR MIN TEMP:  80; 6HR MAX TEMP:  94;

HARRISON       PTCLDY    75  73  93 SE5       30.06S
6HR MIN TEMP:  75; 6HR MAX TEMP:  86;

BENTONVILLE    CLOUDY    79  70  73 S3        30.06S
6HR MIN TEMP:  79; 6HR MAX TEMP:  88;

ROGERS         CLOUDY    78  72  81 SE3       30.06F
6HR MIN TEMP:  77; 6HR MAX TEMP:  84;

SILOAM SPGS    PTCLDY    77  64  65 S5        30.06S
6HR MIN TEMP:  77; 6HR MAX TEMP:  90;

HIGHFILL       CLOUDY    79  74  84 S5        30.05S
6HR MIN TEMP:  79; 6HR MAX TEMP:  87;

$$

ARZ004-005-016-250700-
NORTH CENTRAL ARKANSAS

CITY           SKY/WX    TMP DP  RH WIND       PRES   REMARKS
BATESVILLE     CLOUDY    77  72  83 CALM      30.03F
6HR MIN TEMP:  75; 6HR MAX TEMP:  91;

FLIPPIN        MOCLDY    79  70  73 CALM      30.02S
6HR MIN TEMP:  79; 6HR MAX TEMP:  88;

MTN HOME       CLOUDY    77  71  82 CALM      30.04S
6HR MIN TEMP:  77; 6HR MAX TEMP:  85;

$$

ARZ040-041-250700-
WEST CENTRAL ARKANSAS

CITY           SKY/WX    TMP DP  RH WIND       PRES   REMARKS
MENA           CLEAR     79  70  73 CALM      30.06S
MOUNT IDA      CLEAR     74  71  91 CALM      30.03S
6HR MIN TEMP:  74; 6HR MAX TEMP:  90;

$$

ARZ009-017-025-026-028-250700-
NORTHEAST ARKANSAS

CITY           SKY/WX    TMP DP  RH WIND       PRES   REMARKS
CORNING          N/A     77  75  94 NE3       30.04F
JONESBORO      CLOUDY    79  72  79 NE3       30.02F
6HR MIN TEMP:  79; 6HR MAX TEMP:  90;

NEWPORT        CLOUDY    81  80  96 CALM      30.03F HX  91
6HR MIN TEMP:  81; 6HR MAX TEMP:  90;

WALNUT RIDGE   PTCLDY    79  72  78 E5        30.03S
6HR MIN TEMP:  79; 6HR MAX TEMP:  88;

BLYTHEVILLE    PTCLDY    78  73  84 SE3       30.03S
6HR MIN TEMP:  77; 6HR MAX TEMP:  84;

$$

ARZ022-023-033-042-044-250700-
CENTRAL ARKANSAS

CITY           SKY/WX    TMP DP  RH WIND       PRES   REMARKS
LITTLE ROCK    CLEAR     82  74  76 SW3       30.03S HX  88
6HR MIN TEMP:  82; 6HR MAX TEMP:  91;

JACKSONVILLE   PTCLDY    76  76  99 CALM      30.02S
6HR MIN TEMP:  76; 6HR MAX TEMP:  80;

SEARCY         PTCLDY    75  75 100 CALM      30.04S
6HR MIN TEMP:  75; 6HR MAX TEMP:  79;

HOT SPRINGS    CLEAR     79  71  76 CALM      30.05R
6HR MIN TEMP:  78; 6HR MAX TEMP:  92;

RUSSELLVILLE   CLEAR     77  74  90 CALM      30.02S
6HR MIN TEMP:  76; 6HR MAX TEMP:  83;

$$

ARZ036-250700-
EAST ARKANSAS

CITY           SKY/WX    TMP DP  RH WIND       PRES   REMARKS
WEST MEMPHIS   MOCLDY    80  76  87 CALM      30.02R HX  86
6HR MIN TEMP:  79; 6HR MAX TEMP:  92;

$$

ARZ050-053-066-070-073-250700-
SOUTHWEST ARKANSAS

CITY           SKY/WX    TMP DP  RH WIND       PRES   REMARKS
ARKADELPHIA    FAIR      75  75 100 CALM      30.03S
6HR MIN TEMP:  74; 6HR MAX TEMP:  93;

CAMDEN         CLEAR     73  72  94 CALM      30.03S
TEXARKANA      CLEAR     79  71  76 S6        30.03R
6HR MIN TEMP:  79; 6HR MAX TEMP:  90;

EL DORADO      PTCLDY    75  73  93 CALM      30.04S
6HR MIN TEMP:  75; 6HR MAX TEMP:  90;

DE QUEEN       PTCLDY    73  73 100 CALM      30.01S FOG
6HR MIN TEMP:  73; 6HR MAX TEMP:  90;

$$

ARZ056-057-069-250700-
SOUTHEAST ARKANSAS

CITY           SKY/WX    TMP DP  RH WIND       PRES   REMARKS
PINE BLUFF     CLEAR     77  74  90 CALM      30.03S
6HR MIN TEMP:  77; 6HR MAX TEMP:  90;

STUTTGART      CLEAR     81  72  74 SW7       30.03S
6HR MIN TEMP:  81; 6HR MAX TEMP:  91;

MONTICELLO     CLEAR     80  73  79 SW3       30.04S
6HR MIN TEMP:  80; 6HR MAX TEMP:  92;


$$






USA.gov is the U.S. government's official web portal to all federal, state and local government web resources and services.